GW2067 Weather Reports


time (UTC)temp
C
wind
direction
speed
KPH
gust
KPH
rain 1hr
cm
rain 24hr
cm
rain mn
cm
humidity
%
barometer
mb
20260505230758 13 53 1.6 3.2 0.00 0.97 0.97 98 1004.9
20260505230255 13 259 4.8 8.0 0.00 0.97 0.97 98 1004.6
20260505225752 13 282 3.2 4.8 0.00 0.97 0.97 99 1004.6
20260505225249 14 290 3.2 3.2 0.00 0.97 0.97 99 1005.0
20260505224743 14 217 6.4 9.7 0.00 0.97 0.97 99 1004.7
20260505224242 14 279 6.4 9.7 0.00 0.97 0.97 99 1004.6
20260505223739 14 212 4.8 8.0 0.00 0.97 0.97 99 1004.6
20260505223235 14 285 4.8 4.8 0.00 0.97 0.97 99 1004.4
20260505222731 14 276 9.7 12.9 0.00 0.97 0.97 99 1004.6
20260505222227 14 20 1.6 3.2 0.00 0.97 0.97 99 1004.4
20260505221725 14 57 3.2 3.2 0.00 0.97 0.97 99 1004.3
20260505221221 13 333 0.0 0.0 0.00 0.97 0.97 99 1004.5
20260505220718 13 162 3.2 4.8 0.00 0.97 0.97 99 1004.5
20260505220216 13 338 1.6 1.6 0.00 0.97 0.97 99 1004.6
20260505215714 13 338 1.6 1.6 0.00 0.97 0.97 99 1004.4
20260505215212 13 207 3.2 3.2 0.00 0.97 0.97 99 1004.2
20260505214709 13 336 1.6 1.6 0.00 0.97 0.97 99 1004.3
20260505214206 14 3 0.0 1.6 0.00 0.97 0.97 99 1004.2
20260505213704 14 269 1.6 1.6 0.00 0.97 0.97 99 1004.6
20260505213201 14 152 1.6 3.2 0.00 0.97 0.97 99 1004.6
20260505212656 14 19 1.6 3.2 0.00 0.97 0.97 99 1004.3
20260505212154 14 349 1.6 3.2 0.00 0.97 0.97 99 1004.2
20260505211651 14 307 3.2 4.8 0.00 0.97 0.97 99 1004.3
20260505211148 14 42 4.8 9.7 0.00 0.97 0.97 99 1003.7
20260505210644 15 307 4.8 9.7 0.00 0.97 0.97 99 1003.9
20260505210141 15 338 0.0 1.6 0.00 0.97 0.97 99 1004.2
20260505205639 15 5 1.6 3.2 0.00 0.97 0.97 99 1003.8
20260505205137 15 272 1.6 1.6 0.00 0.97 0.97 99 1003.9
20260505204633 15 282 8.0 11.3 0.00 0.97 0.97 98 1004.0
20260505204131 15 331 1.6 3.2 0.00 0.97 0.97 99 1003.7
20260505203628 15 267 16.1 17.7 0.00 0.97 0.97 99 1003.4
20260505203125 14 296 3.2 3.2 0.00 0.97 0.97 99 1003.7
20260505202620 14 329 0.0 0.0 0.00 0.97 0.97 99 1003.8
20260505202116 13 317 3.2 3.2 0.00 0.97 0.97 99 1003.5
20260505201613 13 325 1.6 3.2 0.00 0.97 0.97 99 1003.4
20260505201111 13 244 4.8 8.0 0.00 0.97 0.97 99 1003.6
20260505200609 13 339 1.6 1.6 0.00 0.97 0.97 99 1003.9
20260505200105 13 329 1.6 1.6 0.00 0.97 0.97 99 1003.9
20260505195556 13 336 3.2 3.2 0.00 0.97 0.97 99 1003.7
20260505195054 13 306 1.6 3.2 0.00 0.97 0.97 99 1003.8
20260505194550 13 322 4.8 4.8 0.00 0.97 0.97 99 1003.9
20260505194046 13 308 0.0 1.6 0.00 0.97 0.97 99 1003.8
20260505193543 13 308 1.6 1.6 0.00 0.97 0.97 99 1003.7
20260505193040 13 291 1.6 1.6 0.00 0.97 0.97 99 1003.5
20260505192538 13 264 4.8 8.0 0.00 0.97 0.97 99 1003.7
20260505192036 13 275 4.8 4.8 2.95 0.97 0.97 99 1003.4
20260505191534 12 255 6.4 8.0 4.27 0.97 0.97 99 1003.6
20260505191031 13 231 9.7 12.9 1.68 0.51 0.51 99 1005.3
20260505190526 13 238 11.3 14.5 0.18 0.25 0.25 98 1003.1
20260505190022 14 40 4.8 12.9 0.00 0.23 0.23 95 1002.7
20260505185514 15 319 20.9 25.7 0.00 0.23 0.23 90 1002.8
20260505185010 16 271 12.9 20.9 0.00 0.23 0.23 86 1003.1
20260505184507 16 286 3.2 3.2 0.00 0.23 0.23 83 1002.4
20260505184004 16 220 3.2 3.2 0.00 0.23 0.23 83 1002.4
20260505183501 16 304 4.8 4.8 0.00 0.23 0.23 84 1002.3
20260505182957 16 300 1.6 3.2 0.00 0.23 0.23 84 1002.6
20260505182454 16 337 0.0 0.0 0.00 0.23 0.23 87 1002.5
20260505181950 15 36 3.2 3.2 0.00 0.23 0.23 91 1002.6
20260505181448 16 336 1.6 1.6 0.00 0.23 0.23 92 1002.6
20260505180944 16 347 1.6 1.6 0.00 0.23 0.23 88 1002.7
20260505180435 16 343 0.0 0.0 0.00 0.23 0.23 86 1002.8
20260505175932 16 25 1.6 1.6 0.00 0.23 0.23 85 1002.9
20260505175428 16 301 1.6 1.6 0.00 0.23 0.23 90 1002.7
20260505174924 16 80 3.2 3.2 0.00 0.23 0.23 89 1003.1
20260505174422 16 20 1.6 1.6 0.00 0.23 0.23 93 1003.5
20260505173918 15 359 0.0 1.6 0.00 0.23 0.23 92 1003.6
20260505173414 16 4 1.6 1.6 0.00 0.23 0.23 92 1003.5
20260505172912 16 346 0.0 0.0 0.00 0.23 0.23 90 1003.7
20260505172410 15 342 0.0 0.0 0.00 0.23 0.23 92 1003.9
20260505171909 15 2 0.0 1.6 0.00 0.23 0.23 95 1003.9
20260505171406 15 331 0.0 1.6 0.00 0.23 0.23 94 1004.2
20260505170903 15 334 0.0 0.0 0.00 0.23 0.23 93 1004.0
20260505170400 15 333 0.0 0.0 0.00 0.23 0.23 95 1004.5
20260505165855 15 329 3.2 3.2 0.00 0.23 0.23 94 1004.5
20260505165350 15 291 0.0 1.6 0.00 0.23 0.23 94 1004.7
20260505164846 14 263 1.6 3.2 0.00 0.23 0.23 93 1004.5
20260505164343 14 259 4.8 4.8 0.00 0.23 0.23 93 1004.7
20260505163842 14 287 8.0 11.3 0.00 0.23 0.23 94 1004.9
20260505163340 14 351 4.8 4.8 0.00 0.23 0.23 95 1004.9
20260505162838 15 260 8.0 11.3 0.00 0.23 0.23 96 1005.0
20260505162334 14 297 8.0 12.9 0.00 0.23 0.23 97 1005.3
20260505161831 14 308 1.6 3.2 0.00 0.23 0.23 99 1005.4
20260505161328 13 87 3.2 4.8 0.00 0.23 0.23 99 1005.5
20260505160825 13 303 1.6 3.2 0.00 0.23 0.23 99 1005.7
20260505160324 12 338 1.6 3.2 0.00 0.23 0.23 99 1005.8
20260505153302 11 291 3.2 3.2 0.13 0.20 0.20 99 1006.1
20260505152759 11 338 3.2 3.2 0.30 0.20 0.20 99 1006.7
20260505152255 11 287 4.8 8.0 0.48 0.18 0.18 99 1006.8
20260505151750 11 260 11.3 12.9 0.43 0.15 0.15 97 1006.6
20260505151248 12 336 14.5 16.1 0.43 0.10 0.10 96 1006.3
20260505150744 12 283 12.9 16.1 0.48 0.08 0.08 92 1006.6
20260505150241 13 263 9.7 20.9 0.18 0.03 0.03 86 1006.6
20260505140206 17 260 8.0 9.7 0.00 0.00 0.00 68 1005.5
20260505130130 14 298 6.4 9.7 0.00 0.00 0.00 80 1005.6
20260505124619 13 318 3.2 3.2 0.00 0.00 0.00 80 1005.8
20260505124116 13 252 1.6 1.6 0.00 0.00 0.00 83 1005.7
20260505123612 13 302 4.8 4.8 0.00 0.00 0.00 83 1005.8
20260505123109 12 154 0.0 3.2 0.00 0.00 0.00 83 1005.7
20260505122605 12 329 3.2 3.2 0.00 0.00 0.00 85 1005.9
20260505122103 12 4 0.0 1.6 0.00 0.00 0.00 85 1005.8
20260505121559 12 53 1.6 1.6 0.00 0.00 0.00 86 1005.6
20260505121056 12 294 4.8 4.8 0.00 0.00 0.00 85 1005.9
20260505120552 11 309 3.2 3.2 0.00 0.00 0.00 88 1006.0
20260505120048 10 300 0.0 1.6 0.00 0.00 0.00 89 1006.1
20260505115542 10 6 3.2 3.2 0.00 0.00 0.00 92 1006.1
20260505115040 10 329 1.6 1.6 0.00 0.00 0.00 96 1006.1
20260505114537 8 350 3.2 3.2 0.00 0.00 0.00 99 1005.9
20260505114033 8 342 0.0 1.6 0.00 0.00 0.00 99 1006.0
20260505113530 8 345 0.0 0.0 0.00 0.00 0.00 99 1006.0
20260505113026 7 17 0.0 0.0 0.00 0.00 0.00 99 1005.9
20260505112522 7 344 1.6 1.6 0.00 0.00 0.00 99 1006.3
20260505112020 6 316 1.6 1.6 0.00 0.00 0.00 99 1006.1
20260505111514 6 326 1.6 3.2 0.00 0.00 0.00 99 1006.3
20260505111011 5 345 1.6 1.6 0.00 0.00 0.00 99 1006.2
20260505110507 4 3 0.0 1.6 0.00 0.00 0.00 99 1006.5
20260505101939 1 340 1.6 1.6 0.00 0.00 0.00 99 1006.7
20260505101432 1 332 0.0 1.6 0.00 0.00 0.00 99 1006.6
20260505100928 1 317 0.0 0.0 0.00 0.00 0.00 99 1006.7
20260505100426 1 313 1.6 3.2 0.00 0.00 0.00 99 1006.7
20260505095921 1 313 1.6 1.6 0.00 0.00 0.00 99 1006.7
20260505095419 1 343 0.0 0.0 0.00 0.00 0.00 99 1006.5
20260505094914 1 337 1.6 3.2 0.00 0.00 0.00 99 1006.5
20260505094412 0 322 0.0 1.6 0.00 0.00 0.00 99 1006.5
20260505093908 0 342 0.0 0.0 0.00 0.00 0.00 99 1006.6
20260505093405 0 305 1.6 1.6 0.00 0.00 0.00 99 1006.7
20260505092902 0 329 1.6 1.6 0.00 0.00 0.00 99 1006.8
20260505092400 0 320 1.6 1.6 0.00 0.00 0.00 99 1006.5
20260505091857 0 325 1.6 1.6 0.00 0.00 0.00 99 1006.6
20260505091355 0 329 1.6 1.6 0.00 0.00 0.00 99 1006.7
20260505090852 0 309 3.2 3.2 0.00 0.00 0.00 99 1006.5
20260505090351 0 325 1.6 1.6 0.00 0.00 0.00 99 1006.2
20260505085848 0 315 1.6 1.6 0.00 0.00 0.00 99 1006.6
20260505085345 0 334 0.0 0.0 0.00 0.00 0.00 99 1006.6
20260505084843 0 329 1.6 1.6 0.00 0.00 0.00 99 1006.5
20260505084341 0 352 1.6 1.6 0.00 0.00 0.00 99 1006.6
20260505083838 0 336 0.0 0.0 0.00 0.00 0.00 99 1006.5
20260505083336 0 330 0.0 0.0 0.00 0.00 0.00 99 1006.7
20260505082832 0 346 1.6 1.6 0.00 0.00 0.00 99 1006.8
20260505082328 0 315 0.0 1.6 0.00 0.00 0.00 99 1006.8
20260505081825 0 342 0.0 0.0 0.00 0.00 0.00 99 1006.7
20260505081322 0 346 1.6 1.6 0.00 0.00 0.00 99 1006.9
20260505080819 0 336 0.0 0.0 0.00 0.00 0.00 99 1006.8
20260505080314 0 335 0.0 0.0 0.00 0.00 0.00 99 1006.8
20260505075810 0 341 1.6 1.6 0.00 0.00 0.00 99 1007.0
20260505075307 0 327 0.0 1.6 0.00 0.00 0.00 99 1007.1
20260505074804 0 336 0.0 0.0 0.00 0.00 0.00 99 1006.9
20260505074302 0 336 1.6 1.6 0.00 0.00 0.00 99 1007.0
20260505073759 0 359 3.2 3.2 0.00 0.00 0.00 99 1007.0
20260505073257 0 340 1.6 3.2 0.00 0.00 0.00 99 1007.0
20260505072753 0 347 3.2 3.2 0.00 0.00 0.00 99 1006.8
20260505072250 0 329 3.2 3.2 0.00 0.00 0.00 99 1006.9
20260505071745 0 332 0.0 0.0 0.00 0.00 0.00 99 1006.9
20260505071242 0 0 3.2 3.2 0.00 0.00 0.00 99 1006.7
20260505070740 0 342 1.6 1.6 0.00 0.00 0.00 99 1006.9
20260505070236 0 353 1.6 1.6 0.00 0.00 0.00 99 1007.2
20260505065732 0 342 0.0 0.0 0.00 0.00 0.00 99 1007.0
20260505065229 0 324 3.2 3.2 0.00 0.00 0.00 99 1006.9
20260505064726 0 341 0.0 0.0 0.00 0.00 0.00 99 1006.8
20260505064223 0 346 0.0 0.0 0.00 0.00 0.00 99 1007.0
20260505063721 0 350 1.6 3.2 0.00 0.00 0.00 99 1007.1
20260505063217 0 321 1.6 1.6 0.00 0.00 0.00 99 1007.1
20260505062713 0 345 0.0 1.6 0.00 0.00 0.00 99 1007.1
20260505062211 0 347 0.0 1.6 0.00 0.00 0.00 99 1007.4
20260505061708 0 336 0.0 1.6 0.00 0.00 0.00 99 1007.4
20260505061206 0 328 1.6 1.6 0.00 0.00 0.00 99 1007.4
20260505060703 0 338 0.0 0.0 0.00 0.00 0.00 99 1007.3
20260505060200 0 340 0.0 0.0 0.00 0.00 0.00 99 1007.4
20260505055655 1 343 0.0 0.0 0.00 0.00 0.00 99 1007.2
20260505055152 1 329 1.6 1.6 0.00 0.00 0.00 99 1007.5
20260505054649 1 344 0.0 0.0 0.00 0.00 0.00 99 1007.5
20260505054147 1 338 0.0 0.0 0.00 0.00 0.00 99 1007.7
20260505053645 1 340 0.0 0.0 0.00 0.00 0.00 99 1007.6
20260505053141 0 340 0.0 0.0 0.00 0.00 0.00 99 1007.7
20260505052638 0 325 1.6 1.6 0.00 0.00 0.00 99 1007.5
20260505052135 0 333 0.0 1.6 0.00 0.00 0.00 99 1007.5
20260505051632 1 327 1.6 1.6 0.00 0.00 0.00 99 1007.8
20260505051130 0 339 0.0 0.0 0.00 0.00 0.00 99 1007.8
20260505050628 0 334 1.6 1.6 0.00 0.00 0.00 99 1007.8
20260505050126 0 333 0.0 0.0 0.00 0.00 0.00 99 1007.9
20260505041555 0 324 3.2 3.2 0.00 0.00 0.00 99 1008.0
20260505041053 1 329 1.6 1.6 0.00 0.00 0.00 99 1008.2
20260505040550 1 330 1.6 1.6 0.00 0.00 0.00 99 1008.2
20260505040047 1 325 0.0 1.6 0.00 0.36 0.36 99 1008.2
20260505035543 1 321 3.2 3.2 0.00 0.36 0.36 99 1008.2
20260505035040 1 343 0.0 0.0 0.00 0.36 0.36 99 1008.0
20260505034536 1 332 0.0 0.0 0.00 0.36 0.36 99 1008.0
20260505034033 1 334 1.6 1.6 0.00 0.36 0.36 99 1008.3
20260505033530 1 336 0.0 0.0 0.00 0.36 0.36 99 1008.1
20260505033029 1 315 3.2 3.2 0.00 0.36 0.36 99 1008.3
20260505032526 1 328 1.6 1.6 0.00 0.36 0.36 99 1008.0
20260505032022 1 346 0.0 0.0 0.00 0.36 0.36 99 1008.0
20260505031520 1 332 0.0 0.0 0.00 0.36 0.36 99 1008.2
20260505031016 1 316 1.6 1.6 0.00 0.36 0.36 99 1008.4
20260505030513 1 317 0.0 1.6 0.00 0.36 0.36 99 1008.2
20260505030009 1 322 1.6 1.6 0.00 0.36 0.36 99 1008.3
20260505025505 1 332 0.0 0.0 0.00 0.36 0.36 99 1008.2
20260505025004 1 317 1.6 1.6 0.00 0.36 0.36 99 1008.3
20260505024500 1 333 0.0 0.0 0.00 0.36 0.36 99 1008.1
20260505023957 1 344 1.6 1.6 0.00 0.36 0.36 99 1008.4
20260505023454 0 332 0.0 0.0 0.00 0.36 0.36 99 1008.1
20260505022952 0 331 0.0 0.0 0.00 0.36 0.36 99 1008.1
20260505022449 0 320 1.6 1.6 0.00 0.36 0.36 99 1008.3
20260505021947 0 323 1.6 1.6 0.00 0.36 0.36 99 1008.4
20260505021443 0 314 3.2 3.2 0.00 0.36 0.36 99 1008.5
20260505020939 0 323 1.6 1.6 0.00 0.36 0.36 99 1008.5
20260505020434 0 333 1.6 1.6 0.00 0.36 0.36 99 1008.5
20260505015931 0 313 1.6 3.2 0.00 0.36 0.36 99 1008.6
20260505015428 0 302 1.6 3.2 0.00 0.36 0.36 99 1008.9
20260505014926 0 318 1.6 3.2 0.00 0.36 0.36 99 1008.5
20260505014422 0 315 1.6 1.6 0.00 0.36 0.36 99 1008.8
20260505013919 0 321 3.2 3.2 0.00 0.36 0.36 99 1008.6
20260505013416 1 325 3.2 3.2 0.00 0.36 0.36 99 1008.5
20260505012914 0 326 1.6 1.6 0.00 0.36 0.36 99 1008.5
20260505012412 0 328 1.6 1.6 0.00 0.36 0.36 99 1008.3
20260505011908 0 322 1.6 1.6 0.00 0.36 0.36 99 1008.4
20260505011405 0 318 1.6 1.6 0.00 0.36 0.36 99 1008.4
20260505010901 1 321 1.6 1.6 0.00 0.36 0.36 99 1008.4
20260505010357 0 341 3.2 4.8 0.00 0.36 0.36 99 1008.2
20260505005853 1 324 0.0 0.0 0.00 0.36 0.36 99 1008.3
20260505005350 1 324 0.0 0.0 0.00 0.36 0.36 99 1008.2
20260505004848 1 328 0.0 0.0 0.00 0.36 0.36 99 1008.1
20260505004344 1 326 0.0 0.0 0.00 0.36 0.36 99 1008.3
20260505003841 1 326 0.0 0.0 0.00 0.36 0.36 99 1008.4
20260505003338 2 329 0.0 0.0 0.00 0.36 0.36 99 1008.0
20260505002834 1 329 0.0 0.0 0.00 0.36 0.36 99 1008.0
20260505002331 2 321 1.6 1.6 0.00 0.36 0.36 99 1008.1
20260505001830 2 324 1.6 1.6 0.00 0.36 0.36 99 1008.0
20260505001326 2 321 1.6 1.6 0.00 0.36 0.36 99 1008.0
20260505000824 2 327 1.6 1.6 0.00 0.36 0.36 99 1007.8
20260505000321 3 328 1.6 1.6 0.00 0.36 0.36 99 1007.8
20260504235818 3 324 1.6 1.6 0.00 0.36 0.36 99 1007.9
20260504235315 3 329 0.0 0.0 0.00 0.36 0.36 99 1007.9
20260504234811 4 332 1.6 1.6 0.00 0.36 0.36 99 1007.7
20260504234309 4 329 0.0 0.0 0.00 0.36 0.36 99 1007.9
20260504233805 4 331 0.0 0.0 0.00 0.36 0.36 99 1007.8
20260504233301 5 333 0.0 1.6 0.00 0.36 0.36 99 1007.6
20260504232758 5 336 0.0 0.0 0.00 0.36 0.36 99 1007.8
20260504232255 5 334 0.0 1.6 0.00 0.36 0.36 99 1007.2
20260504231752 5 265 3.2 3.2 0.00 0.36 0.36 99 1007.7
20260504231248 6 315 1.6 1.6 0.00 0.36 0.36 99 1007.5